Content
SEND FEEDBACK

Daily
Averages
Monthly
Summary
United States of America

QUITMAN, TEXAS


Home > North America > United States > Texas
Elevation: 410 feet     Latitude: 32 49N     Longitude: 095 32W

WEATHER
 
SELECT A DAY
Number of Records: 242,385;   Date Range: 6/10/04 - 11/26/14
 
SHARE

PRINT THIS DATA

[ ← Previous Day ]
WEATHER ALMANAC - FEBRUARY 13, 2013
[ Next Day → ]
[ °C ]   °F
Weather ElementAverageHighLow
Temperature43.6 °F51.8 °F (3:35 pm)35.6 °F (11:15 pm)
Dewpoint37.7 °F42.8 °F (12:35 am)35.6 °F (7:15 am)
Humidity80.5 %100 % (8:55 pm)54 % (3:35 pm)
Barometer30.08 in30.17 in (10:35 am)29.98 in (12:35 am)
Wind Speed6 mph16.1 mph (1:55 am)
Wind Gust19.6 mph (1:55 am)
Weather ElementAverage
Visibility9.9 mi
Wind DirectionSW (225 °)

Weather ElementTotal
Precipitation---
Heating Degree Days21.3 (Base 65)
Averaged from 70 records on February 13, 2013
WEATHER CONDITIONS BREAKOUT
WIND DIRECTION BREAKOUT
WEATHER BY HOUR - FEBRUARY 13, 2013
[ °C ]   °F
Local TimeTemperatureDewpointHumidityBarometerVisibilityWind DirectionWind SpeedGust SpeedPrecipitationEventsConditions
12:35 AM46.4 °F42.8 °F87 %29.98 in10.0 miWNW (300°)9.2 mphOvercast
12:55 AM44.6 °F42.8 °F93 %29.99 in10.0 miWNW (300°)9.2 mphOvercast
1:15 AM44.6 °F42.8 °F93 %30.00 in10.0 miNW (310°)9.2 mph17.3 mphOvercast
1:35 AM44.6 °F42.8 °F93 %30.01 in9.0 miNNW (330°)12.7 mph18.4 mphOvercast
1:55 AM44.6 °F41.0 °F87 %30.01 in10.0 miNW (320°)16.1 mph19.6 mphOvercast
2:15 AM44.6 °F39.2 °F81 %30.02 in10.0 miNW (310°)10.4 mph16.1 mphOvercast
2:35 AM42.8 °F39.2 °F87 %30.02 in10.0 miNW (320°)10.4 mphOvercast
2:55 AM42.8 °F39.2 °F87 %30.02 in10.0 miNW (310°)10.4 mphOvercast
3:15 AM42.8 °F39.2 °F87 %30.03 in10.0 miWNW (300°)9.2 mphOvercast
3:35 AM42.8 °F37.4 °F81 %30.04 in10.0 miNW (320°)10.4 mph18.4 mphOvercast
3:55 AM42.8 °F37.4 °F81 %30.05 in10.0 miNW (310°)11.5 mph16.1 mphOvercast
4:15 AM41.0 °F37.4 °F87 %30.05 in10.0 miNW (310°)11.5 mphOvercast
4:35 AM41.0 °F37.4 °F87 %30.06 in10.0 miNW (320°)11.5 mphOvercast
4:55 AM42.8 °F37.4 °F81 %30.07 in10.0 miNNW (330°)9.2 mph16.1 mphOvercast
5:15 AM41.0 °F37.4 °F87 %30.07 in10.0 miNNW (330°)13.8 mph17.3 mphOvercast
5:35 AM41.0 °F37.4 °F87 %30.07 in10.0 miNNW (330°)10.4 mphOvercast
5:55 AM42.8 °F37.4 °F81 %30.08 in10.0 miWNW (300°)8.1 mphOvercast
6:15 AM41.0 °F37.4 °F87 %30.08 in10.0 miNW (310°)8.1 mphOvercast
6:35 AM41.0 °F37.4 °F87 %30.09 in10.0 miNNW (330°)13.8 mph18.4 mphOvercast
6:55 AM41.0 °F37.4 °F87 %30.10 in10.0 miNNW (340°)13.8 mphOvercast
7:15 AM41.0 °F35.6 °F81 %30.10 in10.0 miNNW (330°)11.5 mph18.4 mphOvercast
7:35 AM41.0 °F37.4 °F87 %30.11 in10.0 miNNW (340°)11.5 mphOvercast
7:55 AM41.0 °F37.4 °F87 %30.11 in10.0 miNNW (340°)10.4 mphOvercast
8:15 AM41.0 °F37.4 °F87 %30.12 in10.0 miNW (320°)5.8 mphOvercast
8:35 AM41.0 °F37.4 °F87 %30.13 in10.0 miNNW (340°)8.1 mphOvercast
8:55 AM41.0 °F37.4 °F87 %30.14 in10.0 miNNW (330°)9.2 mphOvercast
9:15 AM41.0 °F37.4 °F87 %30.15 in10.0 miNNW (330°)8.1 mphOvercast
9:35 AM42.8 °F37.4 °F81 %30.15 in10.0 miNNW (340°)6.9 mphOvercast
9:55 AM42.8 °F37.4 °F81 %30.16 in10.0 miWNW (300°)5.8 mphOvercast
10:15 AM42.8 °F37.4 °F81 %30.16 in10.0 miWNW (300°)6.9 mphOvercast
10:35 AM42.8 °F37.4 °F81 %30.17 in10.0 miNW (310°)5.8 mphOvercast
10:55 AM42.8 °F37.4 °F81 %30.17 in10.0 miWNW (290°)6.9 mphOvercast
11:15 AM42.8 °F37.4 °F81 %30.17 in10.0 miNW (310°)6.9 mphOvercast
11:35 AM42.8 °F37.4 °F81 %30.17 in10.0 miNNW (330°)6.9 mphOvercast
11:55 AM42.8 °F37.4 °F81 %30.17 in10.0 miNW (320°)5.8 mphOvercast
12:15 PM42.8 °F37.4 °F81 %30.16 in10.0 miNW (320°)6.9 mphOvercast
12:35 PM44.6 °F37.4 °F76 %30.15 in10.0 miNNW (330°)5.8 mphOvercast
12:55 PM44.6 °F37.4 °F76 %30.14 in10.0 miNW (310°)5.8 mphOvercast
1:15 PM44.6 °F37.4 °F76 %30.12 in10.0 miCalmOvercast
1:35 PM46.4 °F37.4 °F71 %30.11 in10.0 miWSW (250°)3.5 mphOvercast
1:55 PM46.4 °F37.4 °F71 %30.10 in10.0 miNNW (330°)6.9 mphOvercast
2:15 PM48.2 °F37.4 °F66 %30.10 in10.0 miWSW (240°)4.6 mphMostly Cloudy
2:35 PM48.2 °F37.4 °F66 %30.09 in10.0 miNorth (350°)6.9 mphMostly Cloudy
2:55 PM50.0 °F37.4 °F62 %30.08 in10.0 miWSW (240°)4.6 mphPartly Cloudy
3:15 PM50.0 °F37.4 °F62 %30.08 in10.0 miNNW (340°)5.8 mphClear
3:35 PM51.8 °F35.6 °F54 %30.07 in10.0 miCalmClear
3:55 PM51.8 °F37.4 °F58 %30.07 in10.0 miNorth (350°)3.5 mphClear
4:15 PM51.8 °F37.4 °F58 %30.07 in10.0 miCalmClear
4:35 PM51.8 °F37.4 °F58 %30.07 in10.0 miWSW (240°)3.5 mphClear
4:55 PM51.8 °F35.6 °F54 %30.06 in10.0 miCalmClear
5:15 PM51.8 °F37.4 °F58 %30.06 in10.0 miSSW (200°)3.5 mphClear
5:35 PM51.8 °F35.6 °F54 %30.06 in10.0 miCalmClear
5:55 PM48.2 °F37.4 °F66 %30.06 in10.0 miCalmClear
6:15 PM46.4 °F37.4 °F71 %30.06 in10.0 miCalmClear
6:35 PM44.6 °F37.4 °F76 %30.06 in10.0 miSouth (180°)3.5 mphClear
6:55 PM44.6 °F37.4 °F76 %30.06 in10.0 miCalmClear
7:15 PM44.6 °F37.4 °F76 %30.06 in10.0 miSouth (190°)3.5 mphClear
7:35 PM42.8 °F37.4 °F81 %30.06 in10.0 miSouth (190°)3.5 mphClear
7:55 PM39.2 °F37.4 °F93 %30.06 in10.0 miCalmClear
8:15 PM39.2 °F37.4 °F93 %30.07 in10.0 miCalmClear
8:35 PM39.2 °F37.4 °F93 %30.07 in10.0 miCalmClear
8:55 PM37.4 °F37.4 °F100 %30.07 in10.0 miSouth (180°)3.5 mphClear
9:15 PM41.0 °F39.2 °F93 %30.08 in10.0 miSouth (170°)3.5 mphClear
9:35 PM42.8 °F37.4 °F81 %30.08 in10.0 miSouth (180°)3.5 mphClear
9:55 PM42.8 °F37.4 °F81 %30.08 in10.0 miCalmClear
10:15 PM39.2 °F35.6 °F87 %30.08 in10.0 miCalmClear
10:35 PM37.4 °F35.6 °F93 %30.09 in10.0 miCalmClear
10:55 PM37.4 °F35.6 °F93 %30.08 in10.0 miCalmClear
11:15 PM35.6 °F35.6 °F100 %30.09 in8.0 miCalmClear
11:55 PM35.6 °F35.6 °F100 %30.08 in8.0 miCalmClear
Hourly data recorded from KJDD, located miles away from Quitman, Texas







STORIES FROM OUR PARTNERS